Regional Weather Roundup
Issued by NWS Wilmington, NC

Home | Current Version | Previous Version | Text Only | Print | Product List | Glossary On
Versions: 1 2 3 4 5 6 7 8 9 10 11 12 13 14 15 16 17 18 19 20 21 22 23 24 25 26 27 28 29 30 31 32 33 34 35 36 37 38 39 40 41 42 43 44 45 46 47 48 49 50
000
ASUS42 KILM 031113
RWRILM
RWRILM
REGIONAL HOURLY WEATHER ROUNDUP
NATIONAL WEATHER SERVICE WILMINGTON NC
700 AM EDT WED JUN 03 2015

NOTE: "FAIR" INDICATES FEW OR NO CLOUDS BELOW 12,000 FEET WITH NO
SIGNIFICANT WEATHER AND/OR OBSTRUCTIONS TO VISIBILITY.

...............WFO WILMINGTON COUNTY WARNING AREA...............

......COASTAL NC AND SC COUNTIES......

CITY           SKY/WX    TMP DP  RH WIND       PRES   REMARKS
WILMINGTON     LGT RAIN  68  66  93 CALM      30.00R
N MYRTLE BEACH LGT RAIN  68  67  96 E3        29.99F
MYRTLE BEACH   RAIN      70  66  88 SE6       30.02R FOG

......INLAND NC AND SC COUNTIES.......

CITY           SKY/WX    TMP DP  RH WIND       PRES   REMARKS
LUMBERTON      LGT RAIN  67  65  93 CALM      30.00R
ELIZABETHTOWN  LGT RAIN  66  66 100 CALM      30.01R
WHITEVILLE     LGT RAIN  67  66  94 E5        30.00R
FLORENCE       CLOUDY    67  65  93 N6        30.00R
DARLINGTON     CLOUDY    66  63  88 N3        30.02R

....................REST OF NORTH CAROLINA......................

.........EASTERN NC.........

CITY           SKY/WX    TMP DP  RH WIND       PRES   REMARKS
CAPE HATTERAS  CLOUDY    75  66  73 SE5       30.00R
JACKSONVILLE   CLOUDY    66  63  88 N5        30.00R
MOREHEAD CITY  CLOUDY    71  69  93 NW18      30.00R
KENANSVILLE    CLOUDY    68  67  97 CALM      30.00R
NEW BERN       LGT RAIN  69  67  93 S5        30.03R FOG
ELIZABETH CITY CLOUDY    66  65  96 N12       30.03R FOG

.........CENTRAL NC.........

CITY           SKY/WX    TMP DP  RH WIND       PRES   REMARKS
RALEIGH DURHAM CLOUDY    64  61  90 NE8       30.04R
ROCKY MOUNT    LGT RAIN  67  66  97 NE8       30.02R
ROANOKE RAPIDS NOT AVBL
FAYETTEVILLE   LGT RAIN  67  65  93 CALM      30.00R
HOFFMAN        CLOUDY    66  65  97 E5        30.04S

.........WESTERN NC.........

CITY           SKY/WX    TMP DP  RH WIND       PRES   REMARKS
CHARLOTTE      CLOUDY    66  62  87 NE9       29.99F
GREENSBORO     DRZL/FOG  61  61 100 NE9       30.05R VSB 1
HICKORY        NOT AVBL
BOONE          NOT AVBL
ASHEVILLE      NOT AVBL

.....................REST OF SOUTH CAROLINA.....................

.........EASTERN SC.........

CITY           SKY/WX    TMP DP  RH WIND       PRES   REMARKS
CHARLESTON     TSTM      69  67  93 E10       29.98R
BEAUFORT MCAS  CLOUDY    71  69  93 CALM      29.95S
HILTON HEAD    MOCLDY    72  66  83 CALM      29.96

.........CENTRAL SC.........

CITY           SKY/WX    TMP DP  RH WIND       PRES   REMARKS
COLUMBIA       CLOUDY    68  65  90 E13       29.94R FOG
ORANGEBURG     LGT RAIN  67  63  87 E7        29.98R
SUMTER SHAW    CLOUDY    66  63  90 E6        29.97S

.........WESTERN SC.........

CITY           SKY/WX    TMP DP  RH WIND       PRES   REMARKS
GREENVILLE     NOT AVBL
ROCK HILL      CLOUDY    66  65  96 E5        30.00S FOG
ANDERSON       CLEAR     62  61  96 NE5       29.98R
CLEMSON        NOT AVBL
GREENWOOD      PTCLDY    62  61  96 NE3       30.00R


...................COASTAL AND OFFSHORE REPORTS..................

................LOCAL PIERS AND NC RESERVE................


STATION/POSITION TIME  SKY/WX   TEMP    WIND        PRES    VSBY
                                AIR SEA DIR/SP/G
                 (UTC)          (F)     (DEG/KT/KT) (MB)    (MI)
JOHNY MRCER PIER 1000            68 79  360/  5/  6 1014.5R
NC RESRV MASNBRO NOT AVBL
OCEAN CREST PIER 1102            68 81  280/  5/  6 1015.4R
SPRINGMAID  PIER 1000            69 77   80/  3/  4 1015.7R


................COASTAL AND OFFSHORE BUOYS................


STATION/POSITION TIME  SKY/WX   TEMP    WIND        PRES    VSBY
                                AIR SEA DIR/SP/G
                 (UTC)          (F)     (DEG/KT/KT) (MB)    (MI)
DIMNDSHOAL 41025 1050            74 81  190/  6/  8 1015.7R
WVE H/P(F/S)=  2/ 8 SWL H/P/D(F/S/D)=  2/100/ 8

CAPE LOOKOUT     1100            73     140/ 15/ 17 1015.8R
ONSLOW BAY 41036 NOT AVBL
5 WRITEBCH 41038 1008            72 78  360/ 10/ 12 1015.1R
MASONBORO  41110 1019               78                N/A
WVE H/P(F/S)=  2/ 8 WND WVE H/P(F/S)=  2/ 8

WILM HARBR 41108 1011               79                N/A
WVE H/P(F/S)=  2/ 8 WND WVE H/P(F/S)=  2/ 8

27WRITEBCH 41037 1000               78  350/ 12/ 16   N/A
FRYING PAN 41013 1050            76 76  270/ 14/ 16 1016.1R
WVE H/P(F/S)=  3/ 8 WND WVE H/P(F/S)=  2/ 6 SWL H/P/D(F/S/D)=  2/110/ 8

SUNST NRSH 41024 1008            68      10/  6/  8 1015.4F
CAPRS NRSH 41029 1008            71      90/  8/ 12 1014.7F
EDISTO     41004 1050            74 80  360/ 12/ 14 1014.2F
WVE H/P(F/S)=  2/ 8 WND WVE H/P(F/S)=  2/ 4 SWL H/P/D(F/S/D)=  2/ 8



..........OFFSHORE BUOYS BEYOND 100 NM OFFSHORE...........
.....IN A TRIANGLE---HAT TO BERMUDA TO BAHAMAS TO HAT.....


STATION/POSITION TIME  SKY/WX   TEMP    WIND        PRES    VSBY
                                AIR SEA DIR/SP/G
                 (UTC)          (F)     (DEG/KT/KT) (MB)    (MI)
150E HAT   41001 NOT AVBL
W BERMUDA  41048 1050            76 76  100/  6/  8 1018.3R
WVE H/P(F/S)=  3/ 7 SWL H/P/D(F/S/D)=  3/100/ 7

ATLANTIC S 41049 1050            78 79  110/ 10/ 12 1018.9R
WVE H/P(F/S)=  4/ 8 WND WVE H/P(F/S)=  2/ 4 SWL H/P/D(F/S/D)=  3/120/ 8

E BAHAMAS  41046 1050            81 82  110/ 10/ 12 1015.9R
WVE H/P(F/S)=  3/ 8 WND WVE H/P(F/S)=  2/ 4 SWL H/P/D(F/S/D)=  3/110/ 8

NE BAHAMAS 41047 1050            79 81  140/ 12/ 14 1015.7R
WVE H/P(F/S)=  3/ 8 WND WVE H/P(F/S)=  2/ 5 SWL H/P/D(F/S/D)=  3/110/ 8

120E CANVRL41010 1020            77 81  240/ 10/ 12 1014.2R

END


USA.gov is the U.S. government's official web portal to all federal, state and local government web resources and services.